Home > Weather > Brussels > Past weeks

Flag for Belgium Past Weather in Brussels, Belgium — Yesterday and Last 2 Weeks

Now
72 °F

Passing clouds.


Feels Like: 72 °F
Forecast: 64 / 77 °F
Wind: 7 mph from East

Location: Brussels National Airport

Current Time: Aug 27, 2016 at 12:15:17 PM

Latest Report: Aug 27, 2016 at 11:20 AM


Visibility: N/A

Pressure: 30.07 "Hg

Humidity: 78%

Dew Point: 64 °F

Location of BrusselsLocation

Past Weather in Brussels — Graph

°F

Brussels Temperature Yesterday

Maximum temperature yesterday: 82 °F (at 1:50 PM)
Minimum temperature yesterday: 68 °F (at 4:50 AM)
Average temperature yesterday: 75 °F

High & Low Weather Summary for the Past Weeks

 TemperatureHumidityPressure
High91 °F (Aug 25, 4:50 PM)100% (Aug 14, 2:20 AM)30.33 "Hg (Aug 14, 2:20 AM)
Low50 °F (Aug 16, 5:50 AM)33% (Aug 24, 6:20 PM)29.77 "Hg (Aug 19, 4:20 PM)
Average67 °F74%30.07 "Hg
* Reported Aug 12 10:20 AM — Aug 27 10:50 AM, Brussels, Weather by CustomWeather, © 2016

Note: Actual official high and low records may vary slightly from our data, if they occured in-between our weather recording intervals... More about our weather records

Advertising

Brussels Weather History for the Previous 24 Hours

Scroll right to see more
 ConditionsComfort  
Time TempWeatherWind HumidityBarometerVisibility
10:50 AM
Sat, Aug 27
70 °FPassing clouds.6 mph83%30.07 "HgN/A
10:20 AM70 °FPassing clouds.7 mph83%30.07 "HgN/A
9:50 AM68 °FPassing clouds.7 mph83%30.07 "HgN/A
9:20 AM66 °FPassing clouds.6 mph88%30.07 "HgN/A
8:50 AM66 °FPassing clouds.6 mph88%30.07 "HgN/A
8:20 AM64 °FSunny.7 mph88%30.07 "Hg10 mi
7:50 AM63 °FSunny.5 mph94%30.07 "Hg10 mi
7:20 AM61 °FClear.3 mph100%30.07 "Hg10 mi
6:50 AM61 °FClear.3 mph100%30.07 "Hg10 mi
6:20 AM63 °FClear.3 mph94%30.07 "Hg10 mi
5:50 AM61 °FClear.3 mph100%30.09 "Hg10 mi
5:20 AM63 °FClear.5 mph94%30.09 "Hg10 mi
4:50 AM63 °FClear.3 mph94%30.09 "Hg10 mi
4:20 AM63 °FClear.3 mph100%30.09 "Hg10 mi
3:50 AM64 °FClear.3 mph94%30.09 "Hg10 mi
3:20 AM64 °FClear.2 mph94%30.09 "Hg10 mi
2:50 AM64 °FClear.2 mph94%30.09 "Hg10 mi
2:20 AM64 °FClear.3 mph100%30.09 "Hg10 mi
1:50 AM64 °FClear.3 mph100%30.09 "Hg10 mi
1:20 AM66 °FClear.3 mph94%30.09 "Hg10 mi
12:50 AM66 °FClear.3 mph94%30.09 "Hg10 mi
12:20 AM66 °FClear.3 mph94%30.09 "Hg10 mi
11:50 PM
Fri, Aug 26
68 °FClear.5 mph88%30.09 "Hg10 mi
11:20 PM68 °FClear.5 mph88%30.09 "Hg10 mi
10:50 PM68 °FClear.5 mph88%30.09 "Hg10 mi
10:20 PM72 °FClear.7 mph78%30.09 "Hg10 mi
9:50 PM72 °FClear.6 mph78%30.09 "Hg10 mi
9:20 PM72 °FSunny.7 mph83%30.07 "Hg10 mi
8:50 PM73 °FSunny.6 mph78%30.07 "Hg10 mi
8:20 PM75 °FSunny.7 mph74%30.07 "Hg10 mi
7:50 PM75 °FSunny.8 mph74%30.07 "Hg10 mi
7:20 PM77 °FPassing clouds.8 mph69%30.07 "HgN/A
6:50 PM79 °FSunny.9 mph70%30.07 "Hg10 mi
6:20 PM81 °FPassing clouds.8 mph66%30.07 "HgN/A
5:50 PM81 °FPassing clouds.8 mph66%30.07 "HgN/A
5:20 PM82 °FPassing clouds.7 mph66%30.07 "HgN/A
4:50 PM82 °FPassing clouds.8 mph62%30.07 "HgN/A
4:20 PM82 °FSunny.7 mph66%30.07 "Hg10 mi
3:50 PM81 °FPassing clouds.7 mph66%30.07 "HgN/A
3:20 PM81 °FPassing clouds.9 mph70%30.07 "HgN/A
2:50 PM82 °FPassing clouds.7 mph62%30.07 "HgN/A
2:20 PM82 °FPassing clouds.6 mph62%30.07 "HgN/A
1:50 PM82 °FPassing clouds.7 mph62%30.07 "HgN/A
1:20 PM81 °FPassing clouds.6 mph62%30.04 "HgN/A
12:50 PM79 °FPassing clouds.3 mph70%30.04 "HgN/A
12:20 PM79 °FPassing clouds.6 mph65%30.04 "HgN/A
Weather by CustomWeather, © 2016

See weather overviewHow to use our weather pages